Regional Weather Roundup
Issued by NWS

Home | Current Version | Previous Version | Text Only | Print | Product List | Glossary Off
Versions: 1 2 3 4 5 6 7 8 9 10 11 12 13 14 15 16 17 18 19 20 21 22 23 24 25 26 27 28 29 30 31 32 33 34 35 36 37 38 39 40 41 42 43 44 45 46 47 48 49 50

000
ASUS43 KDMX 180401
RWRIA

WEATHER ROUNDUP FOR IOWA
NATIONAL WEATHER SERVICE DES MOINES IA
1100 PM CDT THU AUG 17 2017

NOTE: "FAIR" INDICATES FEW OR NO CLOUDS BELOW 12,000 FEET WITH NO
SIGNIFICANT WEATHER AND/OR OBSTRUCTIONS TO VISIBILITY.

* - THESE STATIONS ARE NOT NWS STATIONS...THUS NOT UNDER NWS
QUALITY CONTROL.  THEY ALSO DO NOT REPORT WEATHER SUCH
AS PRECIPITATION OR FOG.

IAZ001>003-012>014-020>022-031>034-043>046-180500-
   NORTHWEST IOWA

CITY           SKY/WX    TMP DP  RH WIND       PRES   REMARKS
CARROLL *      MOCLDY    63  61  94 CALM      29.91S
CHEROKEE *     CLEAR     62  62  99 CALM      29.92R
DENISON *      CLEAR     61  61 100 SE3       29.94R
LE MARS *      CLEAR     63  63 100 CALM      29.90S FOG
ORANGE CITY *  CLEAR     68  64  88 CALM      29.92S
SHELDON *      CLOUDY    59  57  94 SE3       29.90S
SIOUX CITY     CLEAR     65  63  93 SE6       29.90S
SPENCER        CLEAR     62  60  93 N3        29.91S
STORM LAKE *   CLEAR     64  59  82 NW7       29.92S
$$

IAZ055>058-069>071-079>083-090>094-180500-
   SOUTHWEST IOWA

CITY           SKY/WX    TMP DP  RH WIND       PRES   REMARKS
ATLANTIC *     CLEAR     64  63  94 S3        29.93S
AUDUBON *      CLEAR     61  57  88 CALM      29.94S
CLARINDA *     CLEAR     61  61 100 CALM      29.96S
COUNCIL BLFS * CLEAR     68  63  83 S5        29.93S HAZE
CRESTON *      CLEAR     66  61  82 W5        29.95S
HARLAN  *      CLEAR     61  61 100 CALM      29.96S
LAMONI         CLEAR     66  60  81 SW5       29.93S
RED OAK *      PTCLDY    63  61  94 CALM      29.93F
SHENANDOAH *   CLEAR     63  63 100 CALM      29.94S
$$

IAZ047>049-059>061-072>074-084-180500-
   CENTRAL IOWA

CITY           SKY/WX    TMP DP  RH WIND       PRES   REMARKS
AMES           CLEAR     65  63  93 W5        29.89R
ANKENY *       CLEAR     68  61  77 W8        29.90S
BOONE *        PTCLDY    68  63  83 W6        29.89S
CHARITON *     CLEAR     68  59  73 W5        29.91S
DES MOINES     CLEAR     70  60  70 W5        29.89S
GRINNELL*      CLEAR     64  61  91 CALM      29.91R
KNOXVILLE *    CLEAR     66  59  77 W6        29.89S
MARSHALLTOWN   CLEAR     63  62  97 W3        29.88R
NEWTON *       CLEAR     64  63  94 W5        29.90R
PELLA *        CLEAR     68  61  78 W6        29.90S
PERRY *          N/A     62  61  96 W5        29.91R
$$

IAZ004>006-015-016-023>025-035-036-180500-
   NORTH CENTRAL IOWA

CITY           SKY/WX    TMP DP  RH WIND       PRES   REMARKS
ALGONA *       CLEAR     61  61 100 NW5       29.90S
CLARION *      CLEAR     59  59 100 CALM      29.89S
ESTHERVILLE    CLEAR     58  58 100 W7        29.90R
FORT DODGE *   CLEAR     63  57  82 CALM      29.91S
MASON CITY     CLEAR     62  59  90 W9        29.89S
FOREST CITY *    N/A     64  61  88 NW6       29.88S
WEBSTER CITY * CLEAR     63  61  94 NW3       29.88S
IOWA FALLS *     N/A     62  61  94 CALM      29.90S
$$

IAZ007>011-017>019-026>030-037>042-050>054-066-180500-
   NORTHEAST IOWA

CITY           SKY/WX    TMP DP  RH WIND       PRES   REMARKS
CEDAR RAPIDS   CLEAR     63  62  97 W6        29.86R
CHARLES CITY * MOCLDY    64  64 100 W6        29.87S
CLINTON *      CLEAR     65  64  97 W8        29.85R
DECORAH *      PTCLDY    66  63  88 VRB6      29.83S
DUBUQUE        PTCLDY    67  63  87 W13       29.84R
MONTICELLO *   CLEAR     64  63  94 CALM      29.84R
OELWEIN *      CLEAR     64  63  94 W7        29.87R
WATERLOO       CLEAR     66  61  84 W5        29.86R
$$

IAZ064-065-067-068-078-180500-
   EAST CENTRAL IOWA

CITY           SKY/WX    TMP DP  RH WIND       PRES   REMARKS
DAVENPORT      CLEAR     67  63  87 SW8       29.87R
IOWA CITY      CLEAR     68  63  84 W6        29.87R
MUSCATINE *    CLOUDY    70  63  78 W6        29.87R
QUAD CITIES    CLEAR     70  63  78 W6        29.85R
$$

IAZ062-063-075>077-085>089-095>099-180500-
   SOUTHEAST IOWA

CITY           SKY/WX    TMP DP  RH WIND       PRES   REMARKS
BURLINGTON     PTCLDY    69  63  81 NW3       29.88R
FAIRFIELD *    PTCLDY    64  61  88 SW6       29.89S
FORT MADISON * PTCLDY    70  63  78 W5        29.90S
KEOKUK *       CLEAR     70  63  78 MISG      29.89R
OSKALOOSA *      N/A     63  61  93 SW6       29.90R
OTTUMWA        CLEAR     67  61  81 SW7       29.88F
WASHINGTON *   PTCLDY    64  64 100 SW5       29.89S
$$

ABBREVIATIONS USED IN REMARKS
   TC - TEMPERATURES IN CELSIUS
  WCI - WIND CHILL INDEX
   HX - HEAT INDEX
  VSB - VISIBILITY
$$





USA.gov is the U.S. government's official web portal to all federal, state and local government web resources and services.